EST,Max TemperatureF,Mean TemperatureF,Min TemperatureF,Max Dew PointF,MeanDew PointF,Min DewpointF,Max Humidity, Mean Humidity, Min Humidity, Max Sea Level PressureIn, Mean Sea Level PressureIn, Min Sea Level PressureIn, Max VisibilityMiles, Mean VisibilityMiles, Min VisibilityMiles, Max Wind SpeedMPH, Mean Wind SpeedMPH, Max Gust SpeedMPH,PrecipitationIn, CloudCover, Events, WindDirDegrees
2013-2-1,40,32,24,27,9,-2,64,42,20,30.37,30.15,29.86,10,10,10,30,13,40,0.00,2,,309
2013-2-2,40,30,19,32,13,5,68,48,27,30.38,30.22,30.03,10,10,4,18,6,25,0.05,4,Rain-Snow,223
2013-2-3,49,40,30,32,26,19,96,67,37,30.00,29.93,29.84,10,9,6,26,9,33,T,4,,286
2013-2-4,48,37,26,25,20,15,69,50,31,30.13,30.04,29.98,10,10,10,14,7,18,0.00,1,,254
2013-2-5,60,47,34,32,28,25,70,52,33,29.97,29.93,29.88,10,10,10,16,8,26,0.00,4,,239
2013-2-6,60,45,30,31,24,16,82,50,18,30.24,30.12,29.97,10,10,10,14,6,24,0.00,0,,330
2013-2-7,43,39,34,36,32,24,100,75,49,30.32,30.21,30.04,10,6,2,15,9,22,0.81,6,Rain,40
2013-2-8,57,46,35,44,34,25,100,68,35,30.06,29.92,29.83,10,9,4,25,11,36,0.22,5,Rain,328
2013-2-9,54,42,29,24,18,10,64,41,18,30.34,30.23,30.06,10,10,10,16,6,21,0.00,0,,300
2013-2-10,52,40,28,38,22,18,75,52,28,30.46,30.34,30.18,10,10,7,14,5,17,0.12,2,Rain,143
2013-2-11,56,49,42,54,46,37,100,91,82,30.16,30.03,29.93,10,5,1,16,7,26,0.07,7,Rain,247
2013-2-12,59,49,38,48,29,20,93,58,23,30.07,30.00,29.92,10,10,10,17,7,21,T,2,,278
2013-2-13,49,43,36,43,40,31,100,76,52,29.91,29.75,29.63,10,6,1,23,6,29,0.26,7,Rain,217
2013-2-14,52,41,30,30,28,24,92,66,39,30.05,29.98,29.87,10,10,10,15,5,18,0.00,0,,259
2013-2-15,60,46,32,35,30,24,89,58,26,30.08,30.00,29.91,10,10,7,17,7,30,0.00,2,,245
2013-2-16,42,35,28,32,28,12,89,67,45,29.96,29.90,29.82,10,6,0,18,6,25,0.12,7,Fog-Rain-Snow,353
2013-2-17,38,30,22,14,7,2,59,40,21,30.26,30.10,29.95,10,10,10,30,13,41,0.00,1,,304
2013-2-18,53,37,20,22,16,11,74,49,24,30.38,30.30,30.19,10,10,10,16,7,22,0.00,0,,203
2013-2-19,46,41,35,43,33,18,96,72,48,30.19,29.99,29.85,10,8,2,17,10,24,0.22,5,Rain,220
2013-2-20,53,39,25,19,10,2,69,41,13,30.12,30.04,29.99,10,10,10,18,8,24,0.00,0,,296
2013-2-21,54,40,25,24,13,8,50,33,16,30.25,30.16,30.10,10,10,10,14,5,17,T,1,Rain,41
2013-2-22,43,38,32,34,31,28,100,88,76,30.31,30.23,30.11,10,6,1,14,6,17,0.31,8,Rain-Snow,60
2013-2-23,44,39,34,41,37,33,100,95,89,30.12,29.95,29.82,10,6,2,12,4,15,0.15,7,Rain,358
2013-2-24,61,50,38,41,34,20,100,61,22,30.03,29.89,29.80,10,5,0,17,8,26,0.05,4,Fog-Rain,286
2013-2-25,44,38,32,24,21,19,69,53,37,30.21,30.13,30.04,10,10,10,15,9,20,0.00,0,,65
2013-2-26,40,36,32,38,33,23,100,81,61,30.14,29.80,29.58,10,3,0,24,11,29,0.82,8,Fog-Rain,38
2013-2-27,55,47,38,38,36,32,100,72,43,29.78,29.70,29.63,10,8,1,18,9,23,T,5,,244
2013-2-28,48,40,32,34,26,22,82,60,38,29.86,29.76,29.69,10,10,10,25,12,30,T,4,,287